GOES 18

Last updated on Mon Dec 15 2025 00:02:29 GMT+0000 (Coordinated Universal Time)

1 51850U 22021A 25348.24664994 .00000114 00000+0 00000+0 0 9996 2 51850 0.0200 155.6685 0000501 159.1299 80.1672 1.00270930 4731
UTC large
Height (km)
Speed (km/s)
/
Latitude / Longitude
Inclination (degrees)
Orbital Period (minutes)
Azimuth
Elevation
Range (km)
Doppler Factor

Next 0 passes for location: London (51.5072 / 0.1276)

Sorry there are no passes over London.